TimeCDT,TemperatureF,Dew PointF,Humidity,Sea Level PressureIn,VisibilityMPH,Wind Direction,Wind SpeedMPH,Gust SpeedMPH,PrecipitationIn,Events,Conditions,WindDirDegrees,DateUTC
12:15 AM,59.0,45.5,61,29.97,10.0,NNW,6.9,-,N/A,,Clear,330,2012-09-06 05:15:00
12:35 AM,58.5,45.5,62,29.98,10.0,NNW,5.8,-,N/A,,Clear,330,2012-09-06 05:35:00
12:55 AM,55.6,45.9,70,29.98,10.0,NNW,4.6,-,N/A,,Clear,330,2012-09-06 05:55:00
1:15 AM,55.2,46.0,71,29.99,10.0,NNW,5.8,-,N/A,,Clear,340,2012-09-06 06:15:00
1:55 AM,52.2,45.9,79,30.00,5.0,NNW,3.5,-,N/A,,Haze,330,2012-09-06 06:55:00
2:15 AM,52.7,45.5,76,29.99,10.0,NNW,5.8,-,N/A,,Clear,330,2012-09-06 07:15:00
2:35 AM,52.0,45.5,79,29.99,10.0,NNW,4.6,-,N/A,,Clear,330,2012-09-06 07:35:00
2:55 AM,51.4,45.1,79,29.99,7.0,NW,4.6,-,N/A,,Clear,310,2012-09-06 07:55:00
3:15 AM,52.9,45.3,75,30.00,10.0,WNW,4.6,-,N/A,,Clear,300,2012-09-06 08:15:00
3:35 AM,53.6,45.5,74,30.00,10.0,NW,5.8,-,N/A,,Clear,320,2012-09-06 08:35:00
3:55 AM,52.0,45.1,77,30.00,10.0,NW,4.6,-,N/A,,Clear,320,2012-09-06 08:55:00
4:15 AM,51.4,45.1,79,29.99,10.0,NNW,6.9,-,N/A,,Clear,330,2012-09-06 09:15:00
4:35 AM,50.9,45.0,80,29.99,1.8,Calm,Calm,-,N/A,,Haze,0,2012-09-06 09:35:00
4:55 AM,50.7,45.0,81,29.99,1.5,Calm,Calm,-,N/A,,Haze,0,2012-09-06 09:55:00
5:15 AM,50.9,44.4,78,30.00,1.5,Calm,Calm,-,N/A,,Haze,0,2012-09-06 10:15:00
5:35 AM,49.8,44.2,81,30.00,10.0,Calm,Calm,-,N/A,,Clear,0,2012-09-06 10:35:00
5:55 AM,48.4,44.2,86,30.00,10.0,Calm,Calm,-,N/A,,Clear,0,2012-09-06 10:55:00
6:15 AM,49.1,44.6,84,30.00,10.0,Calm,Calm,-,N/A,,Clear,0,2012-09-06 11:15:00
6:35 AM,50.0,44.2,81,30.00,10.0,Calm,Calm,-,N/A,,Clear,0,2012-09-06 11:35:00
6:55 AM,48.4,44.2,86,30.00,10.0,Calm,Calm,-,N/A,,Clear,0,2012-09-06 11:55:00
7:15 AM,48.4,44.8,87,30.01,10.0,Calm,Calm,-,N/A,,Clear,0,2012-09-06 12:15:00
7:35 AM,49.6,45.5,86,30.01,10.0,Calm,Calm,-,N/A,,Clear,0,2012-09-06 12:35:00
7:55 AM,51.1,46.4,84,30.01,10.0,Calm,Calm,-,N/A,,Clear,0,2012-09-06 12:55:00
8:15 AM,53.6,47.7,80,30.01,10.0,Calm,Calm,-,N/A,,Clear,0,2012-09-06 13:15:00
8:35 AM,58.5,48.7,70,30.02,10.0,SSW,4.6,-,N/A,,Clear,200,2012-09-06 13:35:00
8:55 AM,60.4,47.8,63,30.01,7.0,Calm,Calm,-,N/A,,Clear,0,2012-09-06 13:55:00
9:15 AM,63.1,47.1,56,30.01,10.0,South,4.6,-,N/A,,Clear,190,2012-09-06 14:15:00
9:35 AM,65.1,48.4,55,30.02,10.0,South,8.1,-,N/A,,Clear,180,2012-09-06 14:35:00
9:55 AM,68.5,46.6,45,30.01,10.0,SSE,6.9,-,N/A,,Clear,150,2012-09-06 14:55:00
10:15 AM,71.6,45.3,39,30.01,10.0,SE,12.7,-,N/A,,Clear,130,2012-09-06 15:15:00
10:35 AM,73.4,46.2,38,30.00,10.0,ESE,9.2,-,N/A,,Clear,120,2012-09-06 15:35:00
10:55 AM,75.4,43.9,32,29.99,10.0,ESE,11.5,-,N/A,,Clear,120,2012-09-06 15:55:00
11:15 AM,77.4,42.3,29,29.98,10.0,SE,12.7,18.4,N/A,,Clear,130,2012-09-06 16:15:00
11:35 AM,79.0,42.6,27,29.97,10.0,SE,13.8,17.3,N/A,,Clear,130,2012-09-06 16:35:00
11:55 AM,80.8,40.3,24,29.96,10.0,SSE,12.7,18.4,N/A,,Clear,150,2012-09-06 16:55:00
12:15 PM,81.9,40.6,23,29.95,10.0,SE,13.8,21.9,N/A,,Clear,130,2012-09-06 17:15:00
12:35 PM,82.9,41.2,23,29.92,10.0,SE,18.4,25.3,N/A,,Clear,130,2012-09-06 17:35:00
12:55 PM,84.6,40.6,21,29.91,10.0,SE,19.6,24.2,N/A,,Clear,130,2012-09-06 17:55:00
1:15 PM,85.6,39.6,20,29.90,10.0,SE,16.1,21.9,N/A,,Clear,130,2012-09-06 18:15:00
1:35 PM,86.7,40.6,20,29.89,10.0,SSE,13.8,20.7,N/A,,Clear,150,2012-09-06 18:35:00
1:55 PM,88.2,41.9,20,29.88,10.0,SSE,13.8,25.3,N/A,,Clear,150,2012-09-06 18:55:00
2:15 PM,89.4,43.3,20,29.88,10.0,SSE,17.3,21.9,N/A,,Clear,160,2012-09-06 19:15:00
2:35 PM,89.8,44.1,20,29.87,10.0,SSE,17.3,23.0,N/A,,Clear,160,2012-09-06 19:35:00
2:55 PM,90.3,46.9,22,29.85,10.0,South,13.8,21.9,N/A,,Clear,170,2012-09-06 19:55:00
3:15 PM,90.7,47.5,23,29.84,10.0,SSE,17.3,24.2,N/A,,Clear,150,2012-09-06 20:15:00
3:35 PM,90.7,48.2,23,29.83,10.0,SSE,20.7,25.3,N/A,,Clear,160,2012-09-06 20:35:00
3:55 PM,91.4,48.9,23,29.82,10.0,South,16.1,26.5,N/A,,Clear,170,2012-09-06 20:55:00
4:15 PM,92.1,49.6,23,29.81,10.0,South,17.3,26.5,N/A,,Clear,170,2012-09-06 21:15:00
4:35 PM,92.3,50.9,24,29.81,10.0,South,17.3,26.5,N/A,,Clear,170,2012-09-06 21:35:00
4:55 PM,92.3,51.8,25,29.79,10.0,South,19.6,26.5,N/A,,Clear,170,2012-09-06 21:55:00
5:15 PM,92.3,52.3,26,29.79,10.0,South,15.0,24.2,N/A,,Clear,170,2012-09-06 22:15:00
5:35 PM,92.1,52.3,26,29.78,10.0,South,18.4,24.2,N/A,,Clear,180,2012-09-06 22:35:00
5:55 PM,91.4,52.9,27,29.78,10.0,South,16.1,-,N/A,,Clear,190,2012-09-06 22:55:00
6:15 PM,91.0,54.0,28,29.76,10.0,South,19.6,23.0,N/A,,Clear,180,2012-09-06 23:15:00
6:35 PM,90.9,54.9,29,29.77,10.0,South,16.1,20.7,N/A,,Clear,190,2012-09-06 23:35:00
6:55 PM,89.4,55.4,31,29.77,10.0,South,10.4,19.6,N/A,,Clear,190,2012-09-06 23:55:00
7:15 PM,87.6,56.3,34,29.77,10.0,South,9.2,-,N/A,,Clear,190,2012-09-07 00:15:00
7:35 PM,85.5,57.2,38,29.77,10.0,South,9.2,-,N/A,,Clear,180,2012-09-07 00:35:00
7:55 PM,82.8,58.1,43,29.77,10.0,South,8.1,-,N/A,,Clear,170,2012-09-07 00:55:00
8:15 PM,81.7,58.6,45,29.77,10.0,SSE,8.1,-,N/A,,Clear,160,2012-09-07 01:15:00
8:35 PM,79.3,59.2,50,29.77,10.0,SSE,5.8,-,N/A,,Clear,150,2012-09-07 01:35:00
8:55 PM,76.3,60.3,57,29.78,10.0,SE,6.9,-,N/A,,Clear,140,2012-09-07 01:55:00
9:15 PM,74.8,60.8,62,29.78,10.0,SE,8.1,-,N/A,,Clear,130,2012-09-07 02:15:00
9:35 PM,75.9,60.4,59,29.78,10.0,SE,6.9,-,N/A,,Scattered Clouds,140,2012-09-07 02:35:00
9:55 PM,75.6,60.4,59,29.78,10.0,SE,8.1,-,N/A,,Scattered Clouds,140,2012-09-07 02:55:00
10:15 PM,73.8,61.2,65,29.78,10.0,SE,5.8,-,N/A,,Clear,130,2012-09-07 03:15:00
10:35 PM,73.6,61.7,66,29.79,10.0,SE,6.9,-,N/A,,Scattered Clouds,130,2012-09-07 03:35:00
10:55 PM,73.2,61.7,67,29.79,10.0,SE,6.9,-,N/A,,Scattered Clouds,140,2012-09-07 03:55:00
11:15 PM,73.4,61.9,67,29.79,10.0,SE,6.9,-,N/A,,Scattered Clouds,140,2012-09-07 04:15:00
11:35 PM,72.7,62.1,69,29.79,10.0,SE,9.2,-,N/A,,Clear,130,2012-09-07 04:35:00
11:55 PM,73.2,62.4,69,29.79,10.0,South,5.8,-,N/A,,Clear,170,2012-09-07 04:55:00